Location: Brno
(49.2000°N, 16.6330°E)
Time: 12:05:05
(UTC+02:00)

Iridium 2 - Visible Passes

Search period start: 21 August 2017 00:00
Search period end: 31 August 2017 00:00
Orbit: 510 x 521 km, 85.5° (Epoch: 20 August)

Date Brightness Start Highest point End Pass type
(mag) Time Alt. Az. Time Alt. Az. Time Alt. Az.
21 Aug 6.0 01:48:02 18° ENE 01:48:02 18° ENE 01:50:23 10° NE visible
21 Aug 4.4 03:23:03 39° WNW 03:23:03 39° WNW 03:26:27 10° N visible
22 Aug 6.3 01:33:24 15° ENE 01:33:24 15° ENE 01:35:07 10° NE visible
22 Aug 4.3 03:08:25 45° NW 03:08:25 45° NW 03:11:38 10° N visible
23 Aug 6.5 01:18:45 12° ENE 01:18:45 12° ENE 01:19:40 10° NE visible
23 Aug 4.4 02:53:46 48° NNW 02:53:46 48° NNW 02:56:47 10° N visible
24 Aug 4.6 02:39:07 46° N 02:39:07 46° N 02:41:55 10° N visible
25 Aug 5.0 02:24:27 40° N 02:24:27 40° N 02:27:01 10° N visible
26 Aug 5.3 02:09:46 34° NNE 02:09:46 34° NNE 02:12:05 10° N visible
26 Aug 6.1 03:44:47 12° WNW 03:44:47 12° WNW 03:45:44 10° NW visible
27 Aug 5.7 01:55:04 28° NNE 01:55:04 28° NNE 01:57:07 10° NNE visible
27 Aug 6.0 03:30:06 14° NW 03:30:06 14° NW 03:31:20 10° NW visible
28 Aug 6.0 01:40:22 24° NNE 01:40:22 24° NNE 01:42:07 10° NNE visible
28 Aug 6.0 03:15:24 15° NW 03:15:24 15° NW 03:16:46 10° NNW visible
29 Aug 6.2 01:25:40 20° NE 01:25:40 20° NE 01:27:06 10° NNE visible
29 Aug 6.0 03:00:41 17° NW 03:00:41 17° NW 03:02:07 10° NNW visible
30 Aug 6.4 01:10:57 16° NE 01:10:57 16° NE 01:12:02 10° NNE visible
30 Aug 6.0 02:45:58 18° NW 02:45:58 18° NW 02:47:23 10° NNW visible
